Showing default

OPS 3662 (VELA 3), 836

Orbit data source: Space-Track

OPS 3662 (VELA 3), 836 is a payload satellite owned by USAF SSD (US) in HEO that was launched on Fri, 17 Jul 1964 UTC via an ATLAS AGENA D launch vehicle from the Air Force Eastern Test Range (AFETR). Payload-class satellites include a variety of spacecraft equipped with specific instruments for various scientific and technological missions. These include communications satellites like Starlink; space stations such as the ISS; scientific satellites like the Hubble; Earth observation satellites from companies like Planet Labs, Umbra, and HawkEye 360; GPS; miniature CubeSats for education and research; and military/defense satellites.

Loading next visibility...
Identifier
836, 1964-040A
Orbit
HEO
Country
Flag of USUS
Related business
Manufacturer
TRW
Mission
Spacecraft
Bus & Motor
VELA, BE-3
Mass
~227 kg wet, 125 kg dry
Launch date (UTC)
1964-07-17 (62 years ago)
Launch vehicle
ATLAS AGENA D
Launch site
Air Force Eastern Test Range (AFETR)
Object type
Payload
Rocket body
Debris
Shape & HBR
Unknown
Radar Cross Section
Medium (>0.1 m² and <1 m²)

Expand to show TLE details & history
Last TLE update: in 18 hours

TLE from in 18 hours
0 OPS 3662 (VELA 3)
1 00836U 64040A   26175.90396288  .00000468  00000-0  00000-0 0  9995
2 00836  52.9446 118.3262 5153012 275.8274   0.4291  0.23920623 11010
Epoch: 2026-06-24T21:41Z
TLE epoch observation values (Epoch: 2026-06-24T21:41:42.392Z)
Latitude
-52.24477°
Longitude
163.09682°
Altitude
47,137.986 km
Speed
3.356 km/s
True Right ascension
02h 46m 18s
True Declination
-52° 13' 21"
Sunlit
Object was in daylight at epoch
Visualization orbit readout
Latitude
Unknown
Longitude
Unknown
Altitude
Unknown
Speed
Unknown
Apparent Right ascension
Unknown
Apparent Declination
Unknown
Sunlit
N/A
Visualization observer readout
Local Sidereal Time
14:47:50
Azimuth
Unknown
Elevation
Unknown
Doppler factor
Unknown
Orbital elements
Apogee altitude
159,728.198 km
Perigee altitude
46,754.231 km
Semi-major axis
109,619.352 km
Eccentricity
0.5153
Inclination
52.9446°
RAAN
118.3262°
Arg. of periapsis
275.8274°
True anomaly
1.56518°
Mean anomaly
0.4291°
Eccentric anomaly
0.88525°
Mean motion
0.0598 °/min
Orbital period
6,019.91 mins
BSTAR
0
Loading maneuver chart data...
Computing Atmospheric mass density...
Loading historical data...
Loading historical data...
Loading historical data...
Loading historical data...
Loading historical data...
Loading historical data...
Loading historical data...
Other satellites on launch #40 in the year 1964 (1964-07-17 UTC)

Documentation

Showing up to 5 results
|